sat.trackr.live / text

‹ back to catalog

STARLINK-30358

NORAD 57879 · 2023-144R

PAYLOAD ACTIVE UNKNOWN

§ Identity

Operator
Country
US
Launch date
2023-09-16
Launch site
AFETR
Launch vehicle
Mass (kg)
RCS (m²)

Purposes: comms

External: N2YO · Heavens-Above · Gunter

§ Orbital elements

Epoch: 2026-09-20T16:33:07.860384Z

Period
94.27 min
Inclination
43.0015°
Eccentricity
0.0001560
Mean motion
15.27578410 rev/d
Perigee alt
482.0 km
Apogee alt
484.1 km
Semi-major
6,861.2 km
B*
5.1317e-5
RAAN
263.6464°
Arg perigee
271.5145°
Mean anomaly
88.5528°
Rev number
16,746

§ Raw data

STARLINK-303581 57879U 23144R   26263.68967431  .00001150  00000+0  51317-4 0  99902 57879  43.0015 263.6464 0001560 271.5145  88.5528 15.27578410167469

JSON: /api/v1/satellites/57879 · /tle

For live sub-satellite position, see the globe view (requires WebGL).

§ Visibility from observer

Set your observer location to see the next 7 days of passes ≥ 10°. The values pass through the URL so the page stays shareable.

No JS? Fill the form by hand. The geolocation button needs JavaScript.